User: anonymous   Login
Location: Unspecified
(0.0000°N, 0.0000°E)
Time: 03:17:13
(UTC+00:00)
Language:

S80/T - Orbit

View from above orbital plane
View from above orbital plane
View from above satellite
View from above satellite

Ground track
Ground track

The orbit data is extracted from the following two-line orbital elements,

1 22078U 92052C   19053.73300782 -.00000042 +00000-0 +79490-4 0  9995
2 22078 066.0848 107.0864 0001573 069.1555 290.9631 12.86791037246697
Epoch (UTC): 22 February 2019 17:35:31
Eccentricity: 0.0001573
inclination: 66.0848°
perigee height: 1313 km
apogee height: 1315 km
right ascension of ascending node: 107.0864°
argument of perigee: 69.1555°
revolutions per day: 12.86791037
mean anomaly at epoch: 290.9631°
orbit number at epoch: 24669

The dashed part of the orbit path shows where the satellite is in the earth's shadow,  

DLR